Other Public Products
Issued by NWS Charleston, SC

Current Version | Previous Version | Graphics & Text | Print | Product List | Glossary On
Versions: 1 2 3 4 5 6 7 8 9 10 11 12 13 14 15 16 17 18 19 20 21 22 23 24 25 26 27 28 29 30 31 32 33 34 35 36 37 38 39 40 41 42 43 44 45 46 47 48 49 50
000 FPUS82 KCHS 291327 OPUCHS TEST...KCHS/KSAV Gateway Observations...TEST National Weather Service Charleston SC 900 AM EDT SAT APR 29 2017 NOTE: "fair" indicates few or no clouds below 12,000 feet with no significant weather and/or obstructions to visibility. SCZ050-WAZ558-NCZ071-TXZ119-213-PAZ071-DCZ001-FLZ074-172-MI076- NYZ176-178-MAZ016-IL014-TNZ027-NJZ106-GAZ044-MD014-291400- ...Gateway Observations for Charleston International... CITY SKY/WX TMP DP RH WIND PRES REMARKS Chas Airport PTSUNNY 79 72 79 S8 30.23R Seattle PTCLDY 43 38 82 SE5 30.29F Charlotte PTSUNNY 74 68 81 S8 30.21R Dallas DFW CLOUDY 79 72 79 S23G29 29.54R HAZE Dallas Love CLOUDY 79 71 76 S17G29 29.55S HAZE Philladelphia CLOUDY 73 67 81 SW10 30.06R Wash National CLOUDY 74 68 81 W5 30.11R Baltimore CLOUDY 73 68 84 W10 30.10R Miami PTSUNNY 82 69 64 SE15 30.13R Detroit CLOUDY 47 37 68 N15 30.14R Newark PTSUNNY 72 66 81 SW10 30.03R Laguardia CLOUDY 70 64 81 S9 30.01R J F K CLOUDY 63 61 93 SW12 30.04R Boston Logan CLOUDY 66 56 70 S6 29.96F Ft. Lauderdale MOSUNNY 81 69 67 SE18 30.13R Chicago O`Hare CLOUDY 45 30 55 NE17G26 30.15F Chicago Midway CLOUDY 46 37 71 NE18G28 30.14F Houston Bush CLOUDY 79 73 82 SE23 29.69R HAZE Houston Hobby CLOUDY 79 74 84 SE22G37 29.69R Nashville PTSUNNY 75 68 78 S12 30.01R Atlanta PTSUNNY 73 67 81 SE5 30.17R $$ GAZ044-118-TXZ119-213-NCZ071-DCZ001-MDZ014-506-PAZ021-071-NJZ106- NYZ176-178-MAZ106-OHZ011-021-055-MIZ076-KYZ091-ILZ014-INZ047- MNZ060-ONZ431-291400- ...Gateway Observations for Savannah International... CITY SKY/WX TMP DP RH WIND PRES REMARKS Savannah Arpt PTSUNNY 78 70 76 S14 30.21R Atlanta PTSUNNY 73 67 81 SE5 30.17R Charlotte PTSUNNY 74 68 81 S8 30.21R Dallas DFW CLOUDY 79 72 79 S23G29 29.54R HAZE Houston Bush CLOUDY 79 73 82 SE23 29.69R HAZE Wash National CLOUDY 74 68 81 W5 30.11R Wash Dulles CLOUDY 72 65 78 SW7 30.11R Baltimore CLOUDY 73 68 84 W10 30.10R Philadelphia CLOUDY 73 67 81 SW10 30.06R Newark PTSUNNY 72 66 81 SW10 30.03R Laguardia CLOUDY 70 64 81 S9 30.01R J F K CLOUDY 63 61 93 SW12 30.04R Boston CLOUDY 66 56 70 S6 29.96F Pittsburg CLOUDY 64 61 90 N8 30.05F Akron LGT RAIN 57 53 86 N7 30.06R FOG Cleveland CLOUDY 51 47 86 N14 30.11R FOG Cincinnati TSTM 63 63 100 S10 30.08R FOG Columbus TSTM 62 62 100 SE5 30.07R Detroit CLOUDY 47 37 68 N15 30.14R Chicago O`Hare CLOUDY 45 30 55 NE17G26 30.15F Minneapolis PTSUNNY 40 25 55 E13 30.30R WCI 32 Indianapolis LGT RAIN 57 56 96 NE8 29.99R FOG Toronto Canada PTSUNNY 45 30 57 N12G21 30.09R $$

USA.gov is the U.S. government's official web portal to all federal, state and local government web resources and services.